Weather reports worldwide

Advertisment
Thorney Island, United Kingdom (3872): temperature & dewpoint: 12.10.2018 18:00:00 - 18.10.2018 18:00:00 (BST)Thorney Island, United Kingdom (3872): temperature -20cm & temperature -100cm: 12.10.2018 18:00:00 - 18.10.2018 18:00:00 (BST)Thorney Island, United Kingdom (3872): wind speed & gusts: 12.10.2018 18:00:00 - 18.10.2018 18:00:00 (BST)Thorney Island, United Kingdom (3872): wind direction: 12.10.2018 18:00:00 - 18.10.2018 18:00:00 (BST)Thorney Island, United Kingdom (3872): reduced air pressure: 12.10.2018 18:00:00 - 18.10.2018 18:00:00 (BST)Thorney Island, United Kingdom (3872): visibility: 12.10.2018 18:00:00 - 18.10.2018 18:00:00 (BST)Thorney Island, United Kingdom (3872): precipitation: 12.10.2018 18:00:00 - 18.10.2018 18:00:00 (BST)
Date & Time tt [°C] td [°C] tt -20cm [°C] tt -100cm [°C] ff [km/h] ff [kn] fx [km/h] fx [kn] dd ppp [hPa] vv [km] rr [mm]
18.10.2018 18:00:00 13,2 9,2 - - 15 8 - - E 1025,3 50 -
18.10.2018 17:00:00 14,6 8,8 - - 24 13 - - E 1025,1 40 0,0
18.10.2018 16:00:00 16,1 9,6 - - 21 11 - - ENE 1025,2 40 0,0
18.10.2018 15:00:00 16,5 9,9 - - 22 12 - - E 1025,5 40 0,0
18.10.2018 14:00:00 15,8 10,0 - - 24 13 - - ENE 1025,8 35 0,0
18.10.2018 13:00:00 15,3 10,7 - - 22 12 - - ENE 1026,2 30 0,0
18.10.2018 12:00:00 14,4 10,6 - - 26 14 - - ENE 1026,7 30 0,0
18.10.2018 11:00:00 13,1 10,1 - - 26 14 - - ENE 1026,7 23 0,0
18.10.2018 10:00:00 11,8 9,5 14,7 15,0 26 14 - - ENE 1026,3 20 0,0
18.10.2018 09:00:00 11,2 9,2 - - 22 12 - - ENE 1026,0 16 0,0
18.10.2018 08:00:00 10,2 8,4 - - 13 7 - - NNE 1025,4 22 0,0
18.10.2018 07:00:00 11,6 9,2 - - 16 9 - - ENE 1024,9 28 0,0
18.10.2018 06:00:00 11,5 9,5 - - 15 8 - - ENE 1024,7 21 0,0
18.10.2018 05:00:00 11,7 10,2 - - 13 7 - - ENE 1024,7 17 0,0
18.10.2018 04:00:00 11,5 10,3 - - 13 7 - - NNE 1024,5 17 0,0
18.10.2018 03:00:00 11,0 9,9 - - 9 5 - - NE 1024,2 11 0,0
18.10.2018 02:00:00 12,6 11,6 - - 13 7 - - NE 1024,1 18 0,0
18.10.2018 01:00:00 13,8 12,8 - - 16 9 - - ENE 1024,0 17 0,0
18.10.2018 00:00:00 13,7 12,9 - - 9 5 - - NNE 1023,8 11 0,0
17.10.2018 23:00:00 13,9 13,0 - - 9 5 - - NNE 1023,5 10 0,0
17.10.2018 22:00:00 13,9 13,0 - - 9 5 - - NE 1023,0 11 0,0
17.10.2018 21:00:00 13,9 13,0 - - 9 5 - - ENE 1022,3 18 0,0
17.10.2018 20:00:00 13,7 12,8 - - 8 4 - - NNE 1021,8 22 0,0
17.10.2018 19:00:00 13,8 12,5 - - 8 4 - - NNE 1021,0 35 0,0
17.10.2018 18:00:00 14,0 12,5 - - 8 4 - - N 1020,4 45 0,0
17.10.2018 17:00:00 14,7 12,5 - - 9 5 - - N 1020,0 50 0,0
17.10.2018 16:00:00 14,6 12,9 - - 9 5 - - N 1019,8 35 0,0
17.10.2018 15:00:00 14,8 13,0 - - 8 4 - - NNW 1019,7 30 0,0
17.10.2018 14:00:00 15,0 13,2 - - 4 2 - - WNW 1019,6 24 0,0
17.10.2018 13:00:00 14,6 13,6 - - 5 3 - - W 1019,5 9 0,2
17.10.2018 12:00:00 14,2 13,3 - - 4 2 - - W 1019,6 8 0,2
17.10.2018 11:00:00 13,8 12,9 - - 4 2 - - WNW 1019,3 7 0,2
17.10.2018 10:00:00 13,7 12,6 14,7 15,0 4 2 - - NNW 1019,1 10 0,0
17.10.2018 09:00:00 13,4 12,6 - - 2 1 - - NNW 1018,6 21 0,0
17.10.2018 08:00:00 12,3 11,0 - - 2 1 - - ENE 1018,3 23 0,0
17.10.2018 07:00:00 13,6 12,1 - - 9 5 - - WSW 1017,8 45 0,0
17.10.2018 06:00:00 10,9 10,4 - - 8 4 - - W 1017,7 40 0,0
17.10.2018 05:00:00 10,8 9,7 - - 8 4 - - W 1017,4 40 0,0
17.10.2018 04:00:00 11,9 10,0 - - 8 4 - - W 1017,4 40 0,0
17.10.2018 03:00:00 12,3 10,2 - - 9 5 - - W 1017,5 30 0,0
17.10.2018 02:00:00 14,1 11,3 - - 13 7 - - W 1017,7 45 0,0
17.10.2018 01:00:00 13,8 11,2 - - 13 7 - - WSW 1017,7 50 0,0
17.10.2018 00:00:00 13,0 11,0 - - 15 8 - - WSW 1017,9 45 0,0
16.10.2018 23:00:00 13,3 11,3 - - 9 5 - - W 1018,0 45 0,0
16.10.2018 22:00:00 14,4 11,8 - - 13 7 - - WSW 1017,8 50 0,0
16.10.2018 21:00:00 14,3 11,8 - - 11 6 - - W 1017,8 50 0,0
16.10.2018 20:00:00 14,8 12,3 - - 16 9 - - W 1017,6 50 0,0
16.10.2018 19:00:00 15,1 12,3 - - 18 10 - - W 1017,3 50 0,0
16.10.2018 18:00:00 15,4 12,4 - - 15 8 - - W 1016,8 45 0,0
16.10.2018 17:00:00 16,1 12,6 - - 16 9 - - W 1016,3 45 0,0
16.10.2018 16:00:00 16,9 14,6 - - 16 9 - - W 1016,0 23 0,0
16.10.2018 15:00:00 16,5 15,2 - - 18 10 - - SW 1016,2 9 0,0
16.10.2018 14:00:00 15,9 14,6 - - 21 11 - - SW 1016,3 9 0,0
16.10.2018 13:00:00 16,6 14,7 - - 22 12 - - SSW 1016,1 13 0,0
16.10.2018 12:00:00 17,6 15,2 - - 18 10 - - SSW 1015,9 23 0,0
16.10.2018 11:00:00 17,5 15,3 - - 15 8 - - SSW 1015,9 21 0,0
16.10.2018 10:00:00 16,8 16,1 14,5 15,0 9 5 - - SW 1015,7 18 0,0
16.10.2018 09:00:00 14,7 14,7 - - 8 4 - - SE 1015,4 6 0,0
16.10.2018 08:00:00 12,6 12,5 - - 8 4 - - ESE 1015,0 2,3 0,0
16.10.2018 07:00:00 12,4 12,2 - - 8 4 - - E 1014,5 0,2 0,0
16.10.2018 06:00:00 14,0 13,9 - - 9 5 - - ESE 1014,3 1,2 0,0
16.10.2018 05:00:00 14,1 14,1 - - 9 5 - - ESE 1014,0 3,2 0,0
16.10.2018 04:00:00 13,8 13,7 - - 9 5 - - E 1014,0 0,6 0,0
16.10.2018 03:00:00 13,5 13,5 - - 9 5 - - SE 1014,4 0,5 0,0
16.10.2018 02:00:00 10,6 10,5 - - 4 2 - - NE 1014,3 0,1 0,2
16.10.2018 01:00:00 10,8 10,7 - - 5 3 - - ENE 1014,4 0,1 0,0
16.10.2018 00:00:00 11,1 10,9 - - 5 3 - - ENE 1014,3 0,1 0,0
15.10.2018 23:00:00 11,8 11,6 - - 9 5 - - NE 1014,1 2,3 0,0
15.10.2018 22:00:00 12,5 12,2 - - 8 4 - - NNE 1013,9 3,2 0,0
15.10.2018 21:00:00 11,3 10,8 - - 8 4 - - NE 1013,5 4,1 0,0
15.10.2018 20:00:00 11,9 11,3 - - 5 3 - - NE 1013,2 6 0,0
15.10.2018 19:00:00 13,5 12,4 - - 5 3 - - ESE 1012,7 30 0,0
15.10.2018 18:00:00 14,8 13,0 - - 5 3 - - SSE 1012,3 45 0,0
15.10.2018 17:00:00 16,4 14,0 - - 9 5 - - S 1011,6 35 0,0
15.10.2018 16:00:00 16,0 14,4 - - 8 4 - - E 1011,1 15 0,0
15.10.2018 15:00:00 15,3 13,7 - - 15 8 - - NE 1010,8 14 0,0
15.10.2018 14:00:00 16,7 14,7 - - 11 6 - - ENE 1010,3 21 0,0
15.10.2018 13:00:00 16,1 14,4 - - 16 9 - - E 1010,2 13 0,0
15.10.2018 12:00:00 14,5 13,5 - - 18 10 - - ENE 1010,0 11 0,0
15.10.2018 11:00:00 13,7 12,8 - - 16 9 - - ENE 1009,4 10 0,0
15.10.2018 10:00:00 13,4 12,4 14,7 15,0 16 9 - - NE 1008,7 15 0,0
15.10.2018 09:00:00 12,8 12,0 - - 15 8 - - ENE 1008,2 20 0,0
15.10.2018 08:00:00 12,6 11,8 - - 13 7 - - NE 1007,5 19 0,0
15.10.2018 07:00:00 12,0 11,4 - - 13 7 - - E 1007,3 18 0,0
15.10.2018 06:00:00 11,8 11,1 - - 16 9 - - ENE 1006,9 35 0,0
15.10.2018 05:00:00 11,6 10,7 - - 22 12 - - E 1006,4 50 0,0
15.10.2018 04:00:00 11,5 10,5 - - 22 12 - - ENE 1005,9 50 0,0
15.10.2018 03:00:00 11,1 10,3 - - 29 16 - - ENE 1005,5 50 0,6
15.10.2018 02:00:00 10,8 10,1 - - 28 15 46 25 ENE 1006,8 23 1,0
15.10.2018 01:00:00 11,0 9,9 - - 29 16 - - ENE 1006,7 50 0,0
15.10.2018 00:00:00 10,4 9,5 - - 31 17 54 29 ENE 1006,6 18 3,2
14.10.2018 23:00:00 10,0 9,4 - - 34 18 57 31 NE 1006,4 1,0 14,2
14.10.2018 22:00:00 10,3 9,4 - - 35 19 52 28 NE 1006,0 11 1,6
14.10.2018 21:00:00 10,6 9,3 - - 34 18 50 27 NE 1006,1 40 0,0
14.10.2018 20:00:00 11,0 9,6 - - 31 17 48 26 NE 1006,1 50 0,0
14.10.2018 19:00:00 11,4 9,9 - - 29 16 48 26 NE 1006,2 50 0,0
14.10.2018 18:00:00 11,6 9,7 - - 35 19 50 27 ENE 1005,4 50 0,0
14.10.2018 17:00:00 12,0 10,4 - - 26 14 46 25 NE 1005,6 50 0,0
14.10.2018 16:00:00 12,4 10,7 - - 29 16 46 25 NE 1004,9 50 0,0
14.10.2018 15:00:00 12,2 11,1 - - 22 12 - - NNE 1004,8 19 0,0
14.10.2018 14:00:00 12,3 11,0 - - 22 12 - - NNE 1004,5 8 0,2
14.10.2018 13:00:00 12,7 10,9 - - 26 14 - - NE 1004,3 50 0,0
14.10.2018 12:00:00 12,9 11,5 - - 29 16 50 27 NE 1004,1 50 0,0
14.10.2018 11:00:00 12,3 11,8 - - 16 9 - - N 1004,8 12 3,6
14.10.2018 10:00:00 13,2 12,2 15,7 15,0 22 12 - - NNE 1003,3 40 0,2
14.10.2018 09:00:00 13,5 12,4 - - 13 7 - - N 1003,9 50 0,2
14.10.2018 08:00:00 13,2 12,6 - - 13 7 - - NNE 1004,3 40 1,4
14.10.2018 07:00:00 12,9 12,2 - - 5 3 - - ENE 1004,3 15 2,8
14.10.2018 06:00:00 13,5 12,3 - - 8 4 - - NE 1005,3 12 0,6
14.10.2018 05:00:00 14,0 12,7 - - 11 6 - - N 1005,7 45 0,2
14.10.2018 04:00:00 14,5 13,2 - - 9 5 - - NNW 1006,4 25 0,2
14.10.2018 03:00:00 15,3 13,7 - - 13 7 - - NW 1006,9 20 0,0
14.10.2018 02:00:00 15,5 14,1 - - 5 3 - - ESE 1007,2 11 0,0
14.10.2018 01:00:00 16,0 14,0 - - 15 8 - - WNW 1007,4 24 0,0
14.10.2018 00:00:00 16,9 15,7 - - 15 8 - - SW 1007,5 17 0,2
13.10.2018 23:00:00 17,4 15,9 - - 11 6 - - S 1007,8 19 0,0
13.10.2018 22:00:00 17,0 15,2 - - 13 7 - - SSW 1008,0 16 0,0
13.10.2018 21:00:00 18,1 15,7 - - 18 10 - - SW 1008,3 18 0,0
13.10.2018 20:00:00 18,0 15,6 - - 21 11 - - SSW 1008,4 22 0,0
13.10.2018 19:00:00 18,5 15,9 - - 24 13 - - S 1008,1 21 0,0
13.10.2018 18:00:00 18,5 15,8 - - 22 12 - - S 1007,7 22 0,0
13.10.2018 17:00:00 19,4 16,0 - - 26 14 - - S 1007,6 20 0,0
13.10.2018 16:00:00 19,3 16,1 - - 22 12 - - S 1008,0 16 0,0
13.10.2018 15:00:00 19,8 16,5 - - 26 14 - - S 1008,5 14 0,0
13.10.2018 14:00:00 20,4 16,7 - - 31 17 48 26 S 1009,1 17 0,0
13.10.2018 13:00:00 20,1 17,0 - - 35 19 - - S 1009,7 27 0,0
13.10.2018 12:00:00 18,9 15,6 - - 22 12 - - S 1010,9 21 0,0
13.10.2018 11:00:00 18,3 14,8 - - 26 14 - - S 1011,2 22 0,0
13.10.2018 10:00:00 18,2 14,5 15,2 14,9 31 17 - - SSW 1011,7 16 0,0
13.10.2018 09:00:00 18,0 14,3 - - 31 17 - - SSW 1011,5 17 0,0
13.10.2018 08:00:00 17,5 14,1 - - 28 15 46 25 SSW 1011,0 17 0,0
13.10.2018 07:00:00 17,3 14,6 - - 31 17 - - S 1010,8 20 0,0
13.10.2018 06:00:00 17,5 14,7 - - 26 14 - - S 1011,1 19 0,0
13.10.2018 05:00:00 17,3 14,5 - - 26 14 - - S 1011,5 18 0,0
13.10.2018 04:00:00 17,7 14,3 - - 28 15 - - SSW 1011,5 13 0,0
13.10.2018 03:00:00 17,8 14,4 - - 29 16 - - SSW 1011,9 14 0,0
13.10.2018 02:00:00 17,5 14,7 - - 28 15 - - SSW 1012,1 17 0,0
13.10.2018 01:00:00 17,4 14,8 - - 22 12 - - SSW 1012,4 10 0,0
13.10.2018 00:00:00 17,7 14,6 - - 22 12 50 27 SSW 1012,3 14 0,0
12.10.2018 23:00:00 18,2 14,4 - - 34 18 - - SW 1012,3 23 0,0
12.10.2018 22:00:00 17,5 14,3 - - 21 11 - - SSW 1012,3 14 0,0
12.10.2018 21:00:00 18,2 13,8 - - 29 16 - - SW 1012,2 14 0,0
12.10.2018 20:00:00 18,1 14,1 - - 29 16 - - SSW 1012,1 18 0,0
12.10.2018 19:00:00 18,4 14,4 - - 35 19 - - SSW 1011,8 18 0,0
12.10.2018 18:00:00 18,4 14,6 - - 37 20 46 25 SW 1011,3 17 0,0

tt = temperature
td = dewpoint
tt -20cm = temperature -20cm
tt -100cm = temperature -100cm
ff = wind speed
fx = gusts
dd = wind direction
ppp = reduced air pressure
vv = visibility
rr = precipitation

Next stations